Location: Asheville, NC
(35.6000°N, 82.5500°W)
Time: 07:40:54
(UTC-04:00)

Vanguard 1 Rocket - Pass Details

Date: 15 February 2018
Orbit: 652 x 4225 km, 34.3° (Epoch: 20 May)

Event Time Altitude Azimuth Distance (km) Brightness Sun altitude
Rises 21:58:33 0° 209° (SSW) 6,316 11.8 -46.1°
Reaches altitude 10° 22:02:29 10° 202° (SSW) 5,721 11.4 -46.8°
Enters shadow 22:09:10 27° 186° (S) 5,006 10.9 -48.1°
Maximum altitude 22:20:26 43° 137° (SE) 4,841 - -50.1°
Drops below altitude 10° 22:43:40 10° 76° (ENE) 7,319 - -54.2°
Exits shadow 22:48:45 - 72° (ENE) 8,041 12.0 -55.1°
Sets 22:49:29 0° 71° (ENE) 8,146 12.0 -55.2°
